Hourly Data Report for February 13, 2003

SHERBROOKE A
QUEBEC

45°26'00.000" N
71°41'00.000" W
241.40 m
7028124
71610
YSC

Download Data

Hourly Data (February 2003)
Hourly Data Report for February 13, 2003
TIME
LST
Temp Definition
°C
Dew Point Definition
°C
Rel Hum Definition
%
Precip. Amount Definition
mm

Wind Dir Definition
10's deg

Wind Spd Definition
km/h
Visibility Definition
km
Stn Press Definition
kPa
Hmdx Definition


Wind Chill Definition


Weather Definition


00:00 -21.4 -29.9 46   29 20 15.0 97.75   -32  
01:00 -22.6 -30.5 49   26 11 15.0 97.79   -31  
02:00 -22.9 -31.3 46   26 13 15.0 97.83   -32  
03:00 -24.5 -32.6 47   27 13 15.0 97.81   -34  
04:00 -25.9 -33.5 49   26 9 15.0 97.83   -34  
05:00 -27.0 -34.5 49   27 13 15.0 97.89   -37  
06:00 -27.2 -34.5 50   25 11 15.0 97.96   -36  
07:00 -28.0 -34.8 52   24 9 15.0 98.03   -36  
08:00 -27.1 -34.6 49   26 15 24.1 98.11   -38 Clear
09:00 -26.5 -34.7 46   28 19 24.1 98.13   -38 Mainly Clear
10:00 -25.4 -35.1 40   28 22 24.1 98.12   -38 Mainly Clear
11:00 -24.4 -34.9 37   29 20 24.1 98.11   -36 Mostly Cloudy
12:00 -23.7 -33.4 41   27 26 24.1 98.04   -37 Mostly Cloudy
13:00 -23.0 -33.6 37   27 28 24.1 97.99   -36 Mostly Cloudy
14:00 -22.7 -32.4 41   27 24 24.1 97.99   -35 Mostly Cloudy
15:00 -22.4 -32.6 39   30 26 24.1 98.00   -35 Mainly Clear
16:00 -22.6 -32.1 42   30 19 19.3 98.05   -33 Mostly Cloudy
17:00 -22.9 -30.5 50   27 19 16.1 98.13   -34 Snow Showers
18:00 -24.0 -31.8 49   28 19 15.0 98.24   -35  
19:00 -24.0 -32.0 48   25 15 15.0 98.31   -34  
20:00 -25.1 -31.6 55   24 11 15.0 98.33   -34  
21:00 -26.9 -32.9 57   27 6 15.0 98.41   -33  
22:00 -29.6 -35.8 55     0 15.0 98.45      
23:00 -31.1 -36.8 57     0 15.0 98.46      

Notes on Data Quality.

Legend

  • E = Estimated
  • M = Missing
  • NA = Not Available*
  • [empty] = Indicates an unobserved value
Date modified: